Location: *
(47.6569°N, 7.4256°E)
Time: 07:46:45
(UTC+00:00)

COSMO-SKYMED 1 - Pass Details

Date: 14 December 2019
Orbit: 621 x 623 km, 97.9° (Epoch: 21 January)

Event Time Altitude Azimuth Distance (km) Brightness Sun altitude
Exits shadow 17:05:11 18° 43° (NE) 1,533 4.1 -13.8°
Maximum altitude 17:07:45 33° 96° (E) 1,053 3.3 -14.2°
Drops below altitude 10° 17:11:40 10° 161° (SSE) 1,987 5.2 -14.8°
Sets 17:14:01 0° 171° (S) 2,888 6.1 -15.2°
